Weather in Novorusov

Russia / Republic of Adygea     44°59′22″N   40°08′40″E
temp.,
°C
wind,
m/s
gust,
m/s
humid.,
%
clouds,
%
prec.,
mm/h
press.,
hPa
HPBL,
m
14 august, sun
sun1400:00+26e513350 0.0 1006375
03:00+22e48412 0.0 1006160
06:00+21ene410440 0.0 1006293
09:00+29e67350 0.0 1005858
12:00+35se342663 0.0 10042132
15:00+32ese353239 0.0 1004355
18:00+34s232943 0.0 1003332
21:00+27sw34451 0.0 100347
15 august, mon
mon1500:00+23sw23630 0.0 100453
03:00+21w22800 0.0 100423
06:00+21se00831 0.0 100512
09:00+29e23410 0.0 1004641
12:00+34e2430100 0.0 10041412
15:00+38nne352218 0.0 10031895
18:00+38ne35225 0.1 10011191
21:00+26wnw22520 0.9 100312
16 august, tue
tue1600:00+22sw23740 0.1 100539
03:00+22w4119123 0.1 1007323
06:00+22sw229240 0.0 100857
09:00+29wnw455811 0.0 1010980
12:00+32wnw44445 0.0 10101559
15:00+35wnw423654 0.0 10092383
18:00+32w444593 0.1 1009493
21:00+27w356222 0.1 1010121
17 august, wed
wed1700:00+24wsw35770 0.0 1010108
03:00+22w33820 0.0 101170
06:00+21wsw23810 0.0 101189
09:00+28nnw11550 0.4 1011592
12:00+33nnw22390 0.0 10091536
15:00+36nw33329 0.0 10082487
18:00+35nnw543233 0.1 10071925
21:00+26nw346415 1.4 100750
18 august, thu
thu1800:00+22sw348733 2.1 100883
03:00+21wsw35917 2.9 1009121
06:00+20wsw24923 0.7 1009100
09:00+25w22670 1.8 1009389
12:00+32wnw32435 0.5 10081043
15:00+35wnw543434 0.5 10072295
18:00+32wnw453912 0.2 1007628
21:00+23se46807 3.9 1009147